Regional Weather Roundup
Issued by NWS Bismarck, ND

Home | Current Version | Previous Version | Text Only | Print | Product List | Glossary On
Versions: 1 2 3 4 5 6 7 8 9 10 11 12 13 14 15 16 17 18 19 20 21 22 23 24 25 26 27 28 29 30 31 32 33 34 35 36 37 38 39 40 41 42 43 44 45 46 47 48 49 50
000
ASUS43 KBIS 010002
RWRBIS

NWR BROADCAST TEXT
NATIONAL WEATHER SERVICE BISMARCK ND
700 PM CDT FRI SEP 30 2016

NOTE: "FAIR" INDICATES FEW OR NO CLOUDS BELOW 12,000 FEET WITH NO
SIGNIFICANT WEATHER AND/OR OBSTRUCTIONS TO VISIBILITY.


CITY           SKY/WX    TMP DP  RH WIND       PRES   REMARKS
WILLISTON      LGT RAIN  62  52  69 S6        30.01S
MINOT          MOCLDY    64  53  67 SE10      30.06S
MINOT AFB      MOCLDY    63  54  74 SE14      30.04F
BISMARCK       PTCLDY    68  45  43 SE15      30.06S
DICKINSON      CLEAR     65  46  50 S13       30.01S
GARRISON         N/A     64  50  60 SE9       30.06S
HETTINGER ARPT PTCLDY    69  47  45 SE7       30.03F
JAMESTOWN      PTCLDY    63  47  55 SE8       30.14S
BEACH          FAIR      68  50  52 SE9       30.03R
CARRINGTON     FAIR      63  48  59 SE9       30.16F
HAZEN          FAIR      64  48  55 E5        30.07S
RUGBY          FAIR      64  48  55 SE10      30.11F
STANLEY        CLOUDY    57  57 100 NE5       30.09S
WATFORD CITY   MOCLDY    64  50  59 SE7       30.02S
$$

CITY           SKY/WX    TMP DP  RH WIND       PRES   REMARKS
GRAND FORKS    PTCLDY    66  50  56 SE9       30.19R
GRAND FORKS AF PTCLDY    64  50  59 SE7       30.19R
DEVILS LAKE    MOCLDY    62  52  69 SE7       30.16F
FARGO          PTCLDY    66  49  54 SE10      30.20S
CANDO          FAIR      61  50  67 SE9       30.17F
CAVALIER       FAIR      64  54  68 SE6       30.20S
GRAFTON        FAIR      63  52  67 SE6       30.21S
GWINNER        FAIR      63  48  59 SE10      30.19S
LANGDON        FAIR      61  52  72 SE10      30.18F
ROLLA          FAIR      59  48  67 SE12G17   30.14F
WALHALLA       FAIR      63  59  88 SE8       30.19S
$$

CITY           SKY/WX    TMP DP  RH WIND       PRES   REMARKS
ABERDEEN       MOCLDY    69  44  40 SE14      30.15S
MOBRIDGE       CLOUDY    69  44  40 SE17G26   30.06S
BUFFALO          N/A     70  47  43 SE14      29.95S
RAPID CITY     CLOUDY    68  52  56 SE3       30.02F
GLASGOW        CLEAR     77  51  40 NW8       29.93S
SIDNEY         CLOUDY    64  56  75 NE7       29.97S
WOLF POINT     CLEAR     74  55  51 E10       29.94R
GLENDIVE       CLEAR     73  59  61 NE7       29.96R
MILES CITY     CLEAR     78  52  40 SW6       29.94S
BAKER          CLEAR     72  52  49 E9        30.00R
$$

CITY           SKY/WX    TMP DP  RH WIND       PRES   REMARKS
BILLINGS       PTCLDY    82  42  24 CALM      29.99S
GREAT FALLS    SUNNY     75  46  35 E8        29.96S
$$





USA.gov is the U.S. government's official web portal to all federal, state and local government web resources and services.